Location: Finnegan
(51.1333°N, 112.0833°W)
Time: 20:54:47
(UTC+00:00)

ISS - Visible Passes

Search period start: 04 December 2023 00:00
Search period end: 14 December 2023 00:00
Orbit: 415 x 417 km, 51.6° (Epoch: 04 December)

Date Brightness Start Highest point End Pass type
(mag) Time Alt. Az. Time Alt. Az. Time Alt. Az.
04 Dec -1.9 01:00:31 10° W 01:03:30 30° SSW 01:06:29 10° SSE visible
05 Dec -2.4 00:11:53 10° W 00:15:05 42° SSW 00:18:16 10° SE visible
05 Dec -0.4 01:50:42 10° SW 01:51:08 10° SW 01:51:34 10° SW visible
06 Dec -0.7 01:00:46 10° WSW 01:02:51 15° SW 01:04:55 10° S visible
07 Dec -1.0 00:11:48 10° W 00:14:30 22° SW 00:17:11 10° SSE visible
09 Dec -0.1 00:12:47 10° WSW 00:13:43 11° SW 00:14:41 10° SSW visible
